Theta_e
316 314 316 318 320 323 341 345 346 347 348 347 344 343 340 339 341 343 344 342 343 343 343 341 343 342 342 343 342 339 340 343 343 342 340 341 341 341 342 340 336 339 337 342
314 314 315 317 320 327 340 340 347 343 347 345 344 344 342 338 338 342 342 342 342 343 341 341 341 340 343 343 342 342 343 340 343 343 343 341 339 341 342 339 339 340 340 341
314 316 317 317 325 342 343 341 345 342 346 345 344 344 342 339 337 340 341 343 343 342 342 342 342 341 342 343 342 344 344 340 339 343 343 342 341 343 342 342 340 342 344 343
315 317 317 317 325 340 340 339 342 341 344 342 344 345 342 341 341 338 338 340 343 345 343 342 343 342 342 342 341 344 344 342 341 343 344 343 343 343 343 343 343 344 342 345
321 322 325 324 334 336 338 340 337 341 342 345 348 347 341 342 344 342 339 338 339 345 344 342 343 342 342 342 341 343 344 343 342 340 341 343 343 341 341 344 344 343 340 345
320 323 323 324 326 333 334 337 325 331 333 337 340 346 340 343 343 339 341 341 338 341 345 344 344 342 342 343 342 343 344 343 342 340 343 343 343 344 344 342 343 342 341 344
319 322 322 323 322 320 317 319 320 332 335 335 332 340 334 342 340 341 338 341 340 338 344 344 344 343 343 344 344 343 343 342 343 341 342 343 343 345 344 342 343 344 345 342
323 324 321 321 322 321 320 317 318 325 333 331 333 336 337 342 338 341 339 339 340 340 341 344 345 345 344 345 344 343 342 343 343 342 341 341 344 344 344 343 343 343 345 345
322 324 324 324 320 320 321 322 320 327 331 333 335 335 335 341 342 339 340 340 340 341 341 341 344 346 345 344 344 344 344 343 343 343 343 342 342 343 344 343 343 344 344 344
322 325 323 324 323 322 323 320 324 325 336 337 336 338 339 340 341 340 336 339 340 341 342 341 342 344 344 345 345 344 346 345 344 344 344 341 342 342 343 343 344 345 344 345
320 320 323 323 323 324 322 326 326 326 327 332 333 333 333 337 336 337 338 340 342 341 341 342 341 342 343 345 345 345 346 346 345 344 344 340 340 343 341 342 345 344 345 346
321 317 322 325 322 320 322 325 324 325 331 330 330 330 333 336 335 338 340 339 343 342 342 341 340 340 342 342 342 343 345 346 346 344 345 343 338 342 343 342 344 345 346 345
321 317 319 319 318 318 320 321 321 322 324 333 331 329 333 333 335 338 340 338 337 342 342 342 341 341 341 342 342 343 344 344 347 346 345 345 342 339 343 342 345 347 347 345
320 313 316 316 319 319 321 320 325 324 328 328 327 329 336 333 333 334 339 338 336 337 339 342 343 342 340 341 342 342 342 345 346 347 346 346 346 343 340 341 342 346 345 345
312 313 316 316 318 321 321 321 320 319 320 326 322 327 330 333 331 333 337 336 331 336 336 335 337 339 342 343 343 343 344 344 344 346 345 345 347 346 343 341 341 342 344 344
313 316 320 322 320 321 322 322 324 330 325 330 331 334 334 332 333 333 338 339 334 333 337 338 340 339 340 341 345 345 345 345 346 346 344 346 347 347 346 343 342 340 341 341
317 317 318 323 319 320 319 326 328 333 333 331 331 330 335 333 335 334 335 336 331 332 342 342 345 341 339 341 345 346 345 344 346 347 346 346 347 348 346 345 344 344 342 340
317 315 314 318 317 321 318 326 333 335 335 334 335 334 332 332 333 334 332 331 330 337 342 342 342 342 341 341 343 346 344 343 344 346 344 346 348 348 345 347 349 348 346 345
314 314 316 318 317 319 322 326 329 334 336 334 335 334 334 336 333 332 331 331 331 336 341 340 339 339 341 342 342 345 347 343 345 346 344 347 345 344 345 347 347 348 349 347
314 311 317 317 321 323 320 326 328 329 335 332 333 334 333 334 330 328 330 333 335 341 340 339 339 340 343 344 344 344 346 347 346 347 345 344 343 344 346 345 347 345 345 345
318 317 317 320 321 321 319 328 328 328 324 333 332 331 331 332 332 329 329 332 334 336 338 337 338 340 343 346 344 343 343 343 344 345 344 342 340 340 340 344 345 346 346 345
319 320 320 319 323 325 325 327 327 324 328 329 329 329 331 331 331 331 331 335 337 335 336 336 339 339 342 346 345 343 343 342 343 342 341 342 342 339 339 340 343 345 344 344
323 319 321 320 321 321 327 324 326 328 327 329 328 325 327 330 332 332 334 337 332 334 336 337 338 339 342 345 345 345 344 342 341 341 338 340 343 341 340 340 341 341 343 343
324 321 320 321 322 324 327 327 327 327 327 328 329 330 330 332 333 331 335 333 334 333 334 337 339 338 344 344 343 343 344 341 337 337 338 337 339 338 337 338 340 339 340 339
322 322 320 320 322 325 329 328 327 328 329 328 325 325 330 334 333 333 333 335 333 332 333 336 339 340 343 339 341 339 338 337 337 335 334 335 337 336 335 337 337 337 335 335
325 321 321 322 323 324 327 329 330 330 327 325 323 325 328 329 329 333 335 334 332 332 332 334 337 339 341 340 340 337 336 336 331 332 333 335 335 336 333 333 334 334 334 333
Wind_Speed
3 4 6 9 7 4 6 4 3 4 6 4 6 4 7 9 6 7 16 30 24 31 30 30 31 29 26 24 20 21 18 18 19 15 16 13 9 7 10 11 16 8 11 12
5 5 10 6 7 5 9 6 4 1 5 6 7 7 5 12 10 14 10 25 24 23 34 33 27 31 32 26 23 24 19 19 20 17 13 11 8 6 9 10 10 9 12 10
6 7 6 6 4 5 3 7 6 4 4 4 2 6 4 5 12 18 19 12 20 24 35 34 32 28 34 29 27 25 23 17 20 20 16 13 14 9 9 11 8 10 11 7
6 6 9 6 6 8 5 8 8 7 5 1 1 3 5 6 8 13 21 21 16 19 27 27 32 34 37 30 28 25 24 19 21 22 19 19 16 13 12 12 8 8 9 7
7 3 4 4 6 10 9 15 12 11 3 1 1 2 5 4 3 6 15 21 25 22 21 27 30 35 37 33 28 26 26 23 22 28 25 22 17 13 10 11 10 10 11 10
6 3 3 3 4 8 9 9 8 6 4 3 2 3 4 2 3 5 15 23 28 27 24 28 29 38 39 36 30 27 28 25 23 21 23 23 19 15 13 14 12 10 11 11
6 2 3 4 3 4 8 7 4 3 1 5 4 4 7 4 7 7 15 27 34 35 29 31 33 39 40 36 32 29 28 27 26 25 26 24 22 19 15 16 16 13 12 13
1 7 2 1 6 7 3 8 5 4 3 3 3 3 5 5 4 5 12 21 27 35 36 31 38 39 40 36 34 33 31 28 27 27 27 27 26 22 20 18 18 17 14 12
2 4 4 1 3 7 3 2 4 7 3 2 3 6 3 2 3 5 14 12 23 27 33 35 36 41 40 38 36 34 32 30 28 28 28 29 27 25 24 22 19 18 17 15
5 2 2 6 4 4 3 5 3 3 4 3 4 4 4 5 4 4 6 8 15 21 23 30 35 36 36 37 34 32 33 31 28 28 28 31 30 27 26 27 24 22 19 17
4 3 5 2 4 3 3 2 7 5 3 5 1 5 5 7 2 6 7 12 9 16 21 25 29 38 37 34 31 30 33 33 30 27 27 30 34 31 28 29 24 24 21 19
2 5 1 2 4 4 3 4 5 5 3 1 3 5 3 9 1 5 4 5 14 12 19 18 23 27 38 36 35 35 34 33 32 27 27 28 31 34 31 30 28 27 25 22
5 3 3 7 6 5 6 3 5 5 3 5 5 5 2 9 7 1 8 3 5 13 16 20 24 24 27 35 35 33 31 32 35 32 30 29 29 33 34 32 30 29 25 23
7 3 6 6 5 3 3 3 3 5 3 5 6 4 6 8 8 11 8 8 4 4 6 11 14 22 29 31 37 40 37 38 33 36 34 33 31 31 34 34 33 35 29 25
4 4 2 2 3 3 3 2 2 5 5 6 5 9 6 9 8 17 16 8 1 3 4 6 10 13 16 27 34 34 37 38 33 41 36 35 34 32 32 32 33 34 33 29
2 2 4 1 3 3 2 6 1 2 4 2 1 3 3 11 12 17 21 15 7 10 5 5 5 7 11 18 24 30 36 40 44 44 36 36 35 33 32 32 30 32 32 32
3 6 3 3 3 3 4 3 1 2 3 1 4 3 6 5 13 21 18 13 12 5 7 5 4 9 14 17 17 24 31 36 39 45 41 37 32 31 31 31 29 29 28 28
6 5 3 3 3 0 6 2 6 7 3 4 2 3 5 3 8 11 11 11 10 9 8 11 13 15 13 12 16 18 25 29 35 40 37 35 31 28 30 32 31 29 29 29
4 6 3 4 3 4 3 6 4 4 3 2 1 1 5 9 10 18 15 17 13 12 10 13 15 14 13 12 12 14 21 29 32 36 37 31 27 27 29 31 31 30 30 29
6 6 5 3 4 5 6 3 6 6 1 4 7 10 8 3 2 6 9 5 10 12 14 15 16 11 13 13 13 17 18 25 29 30 34 34 22 28 32 30 28 28 28 27
3 3 6 3 3 6 7 7 11 2 7 16 14 11 10 6 12 6 11 9 10 13 15 16 12 11 12 9 15 17 20 18 23 25 28 21 17 17 24 27 29 28 28 27
7 6 3 3 3 5 10 4 6 6 11 18 16 14 16 19 18 17 15 10 8 12 14 12 7 9 9 6 10 16 23 11 12 15 14 19 23 23 23 25 27 29 27 30
1 6 6 7 6 5 9 5 6 13 15 15 17 13 17 20 19 17 14 10 12 10 11 8 6 8 8 5 10 13 18 18 13 15 14 18 22 17 20 21 17 15 17 19
2 3 4 4 3 6 10 10 12 13 11 11 9 12 16 20 18 17 14 11 11 11 8 7 7 8 6 5 6 9 18 24 16 14 13 12 13 18 4 16 20 11 13 11
4 6 5 2 2 5 12 14 16 17 13 7 2 8 11 13 16 16 14 12 10 9 6 6 7 7 9 5 13 15 20 20 19 17 17 14 14 16 14 14 16 16 16 15
7 6 5 5 15 9 22 22 22 19 12 5 3 7 8 11 13 14 13 9 8 8 8 10 5 4 12 15 18 22 19 21 25 20 16 16 18 23 24 25 24 20 18 15
Wind_Direction
21 71 199 195 201 159 175 145 173 212 154 126 197 220 185 220 165 201 151 167 176 186 190 185 191 190 188 185 175 178 182 188 192 183 187 195 178 166 174 158 166 145 153 149
22 235 230 167 195 212 180 138 207 234 183 188 171 210 186 180 196 207 200 171 171 181 179 184 190 195 194 188 183 180 185 200 202 200 202 201 181 179 177 159 173 166 162 156
170 229 127 155 213 147 162 188 190 181 174 28 334 331 156 200 201 191 220 202 187 186 182 186 195 201 198 193 191 189 188 196 201 203 207 199 196 209 212 192 180 164 154 162
224 263 185 157 198 159 218 166 170 136 89 200 337 284 294 159 184 190 201 209 211 197 192 199 196 198 201 202 199 199 191 191 197 202 217 211 201 201 198 203 206 194 175 182
267 310 102 140 211 160 226 160 161 110 66 57 298 86 269 118 196 204 217 213 213 206 202 196 197 198 197 201 200 202 199 197 199 208 210 211 207 208 196 213 210 210 195 195
242 275 192 213 123 184 103 85 47 55 36 357 250 133 309 355 326 245 202 198 212 209 201 202 202 199 200 201 201 202 201 204 208 208 207 204 209 208 214 219 206 200 202 210
326 261 286 152 91 70 74 78 38 10 19 222 126 113 247 265 267 275 198 202 204 208 205 196 197 200 202 203 206 205 208 211 211 210 211 212 210 213 213 213 221 212 211 211
103 324 205 237 173 174 129 143 149 173 195 252 142 230 255 207 250 63 193 210 196 198 204 204 198 200 201 208 209 209 212 215 217 218 218 221 218 215 219 220 219 226 226 223
152 314 294 14 157 123 185 83 162 103 7 55 273 291 278 204 224 16 126 156 188 196 203 204 203 202 205 210 216 217 217 220 223 223 225 221 222 220 217 220 221 222 228 231
205 88 1 300 61 56 126 156 79 21 137 218 291 280 244 253 239 137 59 119 184 197 200 210 209 207 212 215 218 220 223 222 226 226 228 224 224 227 221 223 231 226 221 219
119 97 289 19 40 245 9 78 55 106 103 151 172 268 223 242 137 113 161 139 150 186 203 214 215 217 219 213 218 222 222 222 222 228 229 227 225 227 226 225 227 215 217 224
53 136 122 196 280 314 164 127 126 116 221 104 135 272 265 252 72 79 258 184 121 153 189 210 220 230 221 220 222 231 226 229 225 225 226 230 226 226 229 225 225 221 224 230
188 26 24 353 354 357 56 15 98 101 86 187 138 259 316 296 297 130 192 204 98 136 170 195 211 216 223 233 223 226 231 236 227 226 226 229 231 226 227 223 222 223 228 228
103 113 149 182 203 196 320 5 161 120 126 174 220 226 245 259 258 275 219 194 142 121 163 184 192 219 231 230 235 242 242 230 238 230 229 230 232 233 230 225 225 228 233 233
100 115 159 156 255 235 238 331 157 178 187 162 243 200 220 218 240 269 279 231 131 173 198 202 210 226 236 238 237 237 241 229 243 234 230 233 231 237 234 229 228 229 233 237
20 159 147 149 287 64 359 340 213 67 131 256 189 229 246 200 229 253 248 262 277 354 284 266 281 260 269 256 251 241 236 233 234 229 234 233 232 235 235 230 229 230 235 235
115 132 104 223 334 20 358 324 131 27 25 146 195 205 155 242 245 248 258 275 300 327 342 312 290 281 276 279 271 247 236 232 231 233 234 234 235 236 234 226 225 226 229 228
132 103 93 174 30 93 241 324 111 102 15 354 58 173 192 293 277 267 247 282 273 307 316 307 294 277 274 286 276 257 237 233 231 230 236 230 232 237 232 226 226 228 227 230
120 123 93 137 176 275 284 185 193 139 285 292 137 269 281 303 312 289 274 268 277 296 305 309 307 291 263 264 261 259 239 228 229 224 229 228 228 234 238 237 235 231 230 232
68 71 113 134 138 204 237 256 160 122 309 222 201 205 213 183 358 267 343 282 281 288 298 306 303 300 266 248 245 239 233 221 222 216 212 224 258 249 243 238 239 238 235 237
64 35 143 145 166 281 246 232 151 155 234 201 210 222 208 196 232 280 319 310 289 290 295 303 298 289 275 259 234 233 225 223 222 222 215 224 241 262 257 252 239 240 240 236
155 143 173 94 106 263 194 107 163 207 172 192 211 229 237 247 259 271 289 289 282 294 294 302 299 279 267 251 240 248 224 210 204 215 233 247 250 255 258 259 252 239 229 236
151 174 177 167 205 222 170 176 188 173 183 202 220 239 248 253 256 268 274 273 291 298 297 291 296 293 249 248 253 242 214 192 179 197 213 238 258 248 270 241 229 235 230 223
323 179 114 102 248 185 186 183 167 167 174 197 229 256 266 259 258 262 263 260 273 291 306 282 289 263 241 247 227 192 186 172 178 186 183 170 194 177 51 154 173 126 154 166
187 137 143 255 272 120 173 174 170 166 171 185 274 304 288 265 264 264 253 259 274 277 257 243 263 238 190 191 145 156 159 162 160 153 146 154 145 146 120 120 126 132 123 122
193 165 156 211 192 170 187 184 179 175 175 172 222 260 268 272 269 262 253 257 267 275 230 219 219 239 182 169 152 151 155 159 148 143 133 128 128 139 128 126 126 134 132 133